Wind_Speed
25 25 24 23 22 20 19 18 17 15 14 13 14 16 18 19 21 22 23 23 23 23 23 24 24 24 24 23 23 24 24 25 26 27 28 28 28 28 28 28 27 27 27
17 16 15 14 13 12 12 12 11 11 11 13 14 16 18 20 21 22 22 23 23 23 23 23 23 23 23 23 23 23 23 24 24 26 27 28 28 28 28 29 29 29 28
10 10 9 8 7 7 7 7 9 10 11 13 15 16 17 19 20 21 22 22 23 23 23 22 22 22 22 23 22 22 23 23 24 25 26 27 26 27 28 29 30 30 30
8 7 6 6 6 6 7 8 10 12 13 14 15 16 18 19 20 21 21 22 22 22 22 22 22 22 22 22 22 22 22 22 23 23 25 26 26 26 27 28 28 31 32
5 5 5 6 7 8 9 10 11 12 14 15 17 17 19 20 20 21 20 20 21 21 21 21 21 22 22 21 21 21 21 22 22 22 23 24 25 25 26 26 28 29 30
3 5 6 7 8 9 10 11 12 14 15 16 17 18 18 19 19 20 20 21 21 21 21 21 21 22 22 21 21 21 21 22 22 23 22 22 23 24 24 25 28 29 30
5 6 8 9 9 10 12 13 13 14 15 16 17 18 19 19 19 20 20 21 21 21 21 21 21 21 21 21 22 22 22 22 22 23 23 22 22 22 23 23 24 27 29
8 9 11 12 12 13 14 15 15 16 16 17 18 18 19 19 20 20 20 20 21 21 21 20 20 20 20 20 21 21 22 22 22 22 23 22 22 22 22 22 22 25 26
10 11 12 13 14 15 16 17 17 18 18 19 19 19 19 19 19 19 19 20 20 20 20 20 20 20 19 19 20 20 20 21 21 21 22 21 21 21 21 21 22 22 24
11 12 13 14 15 16 16 17 17 18 18 19 19 20 20 20 20 20 20 20 20 19 19 19 19 19 19 19 19 19 19 20 20 20 20 21 20 20 20 20 21 22 22
12 13 14 14 15 15 16 16 17 17 18 18 19 19 20 20 20 20 20 20 20 20 19 18 18 18 17 17 18 18 18 19 19 19 19 20 20 20 20 20 21 21 22
13 13 14 14 15 15 15 15 16 16 17 18 18 18 19 19 20 20 20 20 20 20 19 19 18 18 18 17 17 17 17 17 18 18 19 19 19 20 20 20 21 21 22
13 13 13 13 13 13 13 13 13 14 14 15 15 16 17 17 18 18 19 19 19 19 19 19 18 17 17 17 16 16 16 16 16 17 18 18 18 19 19 20 20 21 22
14 13 13 12 12 10 10 10 11 11 11 11 12 12 13 14 14 15 15 16 17 17 17 17 16 16 16 16 15 14 14 14 15 15 16 17 17 18 18 19 19 20 21
14 14 13 12 11 10 9 9 8 8 7 7 7 8 9 9 10 10 11 12 12 13 13 14 14 13 13 13 13 13 13 13 13 14 14 15 15 16 17 18 19 20 21
15 15 14 13 12 11 10 9 8 7 7 6 5 5 5 5 5 6 6 7 7 8 8 9 9 9 9 9 9 10 10 11 11 12 12 13 14 14 15 16 18 19 20
16 16 15 14 13 12 11 10 10 9 9 8 7 6 5 4 3 2 1 1 1 2 3 3 4 4 4 5 5 6 6 6 7 8 9 10 11 12 13 15 16 18 19
17 16 15 15 14 13 13 13 12 12 11 11 10 10 9 8 7 7 6 5 5 4 3 2 2 2 1 1 1 2 3 4 5 6 7 8 9 10 11 13 14 16 18
17 16 16 15 15 14 14 14 14 14 14 13 13 13 13 12 11 10 10 9 8 8 7 6 5 4 4 3 2 2 2 3 3 5 6 7 7 9 10 12 13 15 17
16 16 16 16 16 15 15 15 15 15 15 15 15 14 14 14 14 13 12 12 11 10 9 8 8 7 6 5 4 4 4 4 5 5 6 7 8 9 10 12 13 15 17
15 15 15 15 16 16 15 15 15 15 15 15 15 15 15 15 15 14 14 13 13 12 11 10 9 9 8 7 7 7 7 7 7 7 8 8 9 10 11 12 14 15 17
14 14 15 15 15 16 16 15 15 15 15 15 15 15 15 15 15 14 14 14 14 13 13 12 12 11 10 9 9 9 9 9 9 9 9 10 10 11 12 14 15 16 18
13 14 14 14 15 15 15 15 15 15 15 15 15 15 15 15 14 14 14 14 14 14 13 13 12 12 11 11 10 10 10 9 10 10 10 11 12 13 14 15 16 18 20
11 12 13 13 14 14 14 14 14 15 14 14 14 14 14 14 14 13 13 13 13 13 13 13 12 12 12 11 11 11 11 11 11 11 11 12 13 14 15 16 18 20 21
9 10 10 11 12 12 13 13 13 13 13 14 13 13 13 13 13 13 13 12 12 12 12 12 12 12 12 12 12 12 12 12 12 12 13 14 15 16 17 18 19 21 22
6 8 8 9 9 10 11 11 12 12 12 12 13 13 13 13 13 12 12 12 12 12 12 12 12 12 12 12 12 12 13 13 13 14 14 15 16 17 18 19 20 21 23
Wind_Direction
254 257 259 255 253 254 254 246 239 236 235 239 245 252 256 257 258 259 260 260 261 263 264 266 267 268 267 268 267 268 267 265 264 262 261 260 257 255 254 251 249 248 246
248 247 249 243 241 239 235 231 235 239 244 251 255 259 261 259 258 258 258 260 261 263 264 264 266 266 266 265 266 265 266 266 265 262 261 260 259 255 253 251 249 246 245
239 237 236 232 233 237 242 250 254 256 257 258 260 262 263 262 260 259 259 260 261 261 262 263 264 265 265 265 265 265 266 267 265 262 261 261 261 259 254 252 249 245 245
237 238 240 245 251 259 264 265 263 262 264 264 265 266 265 264 263 263 262 261 261 261 262 264 265 265 265 265 265 265 266 265 265 263 262 262 262 260 255 252 249 247 244
236 251 258 268 271 271 272 270 271 272 269 269 269 271 268 266 265 263 263 263 263 263 264 265 266 266 265 265 265 265 265 264 265 266 264 264 261 259 258 254 250 247 246
289 279 277 281 284 280 278 278 276 275 273 272 271 270 267 265 264 263 263 264 265 266 266 267 268 268 267 266 266 267 267 266 265 266 267 265 265 260 259 257 251 246 248
306 298 293 293 289 284 282 281 277 277 275 272 270 268 266 266 265 265 265 265 266 268 269 270 270 270 268 267 266 267 268 268 266 265 267 265 265 265 263 261 254 250 250
308 305 301 298 295 291 286 283 280 278 276 275 271 269 267 266 267 267 267 267 267 268 269 269 271 272 271 269 268 268 268 268 267 265 266 266 267 266 267 265 260 256 254
315 309 304 300 296 291 288 285 282 279 277 275 272 270 268 267 267 266 267 268 268 268 269 270 271 271 272 270 269 268 267 267 267 266 266 268 269 268 267 267 266 264 260
317 312 307 302 297 292 288 285 283 281 278 275 272 270 269 269 268 268 267 267 268 269 269 269 270 270 270 270 269 269 268 268 269 267 268 270 270 269 268 269 269 269 267
319 313 308 303 299 295 291 288 285 282 279 276 274 272 271 270 269 268 267 267 267 268 268 268 268 269 270 270 270 269 269 270 271 270 269 270 271 271 270 269 270 271 272
327 321 316 310 305 301 297 293 289 285 281 278 275 273 272 271 270 268 266 266 266 266 266 267 267 268 270 270 269 269 270 271 272 272 271 271 271 270 272 273 272 272 273
337 332 328 323 317 310 304 300 296 292 287 283 279 276 274 272 271 268 266 265 264 264 265 266 266 265 266 268 268 270 273 274 273 273 273 273 273 273 273 275 275 275 275
351 348 345 340 335 329 322 316 310 305 299 293 286 282 278 276 273 270 267 265 264 263 264 264 264 264 266 267 268 270 273 275 275 274 276 275 275 276 276 277 278 279 278
4 3 1 359 357 354 349 344 340 333 325 316 307 298 289 283 278 273 268 266 266 264 263 262 261 263 264 266 267 269 273 276 278 278 277 278 278 279 279 281 282 282 282
16 15 14 14 16 16 15 13 11 6 2 357 348 336 321 305 291 282 276 270 266 263 260 258 257 257 261 262 263 270 274 278 283 286 283 281 281 283 285 286 288 288 288
23 25 27 30 32 33 33 33 32 31 31 31 30 30 31 34 32 22 0 306 255 245 243 244 246 250 251 252 259 270 279 287 291 292 291 292 291 291 292 294 295 295 295
30 34 36 39 41 43 44 45 46 46 47 49 51 54 55 59 61 63 66 74 80 90 100 109 112 111 116 147 260 290 300 307 309 308 308 309 307 304 303 303 304 304 303
36 39 42 44 46 48 50 52 53 55 56 57 58 61 63 66 69 70 71 75 77 79 82 88 87 88 88 78 62 40 13 352 343 341 337 333 328 323 319 317 315 313 312
39 42 45 47 49 52 53 55 57 58 59 60 61 63 66 67 69 70 72 73 74 75 76 80 79 79 79 76 68 54 40 28 17 6 357 351 345 342 338 335 331 328 325
42 44 47 50 51 53 55 56 58 59 60 61 63 64 66 67 69 70 70 70 72 73 75 77 78 75 73 69 61 51 43 36 28 21 15 9 3 358 353 349 344 340 337
43 45 48 51 53 54 55 57 58 59 60 61 62 64 66 67 68 68 69 70 70 71 73 74 74 72 68 64 60 56 51 45 38 31 24 17 11 4 359 355 352 348 345
44 47 49 51 52 54 55 56 57 58 59 60 62 63 65 66 67 67 68 68 69 69 70 70 68 66 63 61 57 53 48 41 34 28 22 17 13 8 4 0 357 354 352
43 45 48 50 51 53 55 55 56 57 58 58 60 61 63 63 64 65 66 66 66 67 66 65 64 62 60 56 52 46 41 36 31 27 22 17 12 8 6 4 2 0 359
37 39 42 44 47 50 52 54 54 55 55 56 57 59 60 61 62 63 64 64 64 63 62 61 60 57 54 50 47 42 38 35 32 27 22 18 14 12 10 8 6 5 4
29 32 33 36 39 43 46 48 50 52 54 54 55 56 57 58 60 61 61 61 61 60 59 57 55 52 49 47 44 40 37 34 30 26 22 19 15 13 11 10 8 8 7
Height
5791 5792 5793 5794 5795 5796 5797 5798 5800 5802 5804 5805 5807 5808 5809 5810 5811 5812 5813 5813 5813 5813 5814 5814 5814 5814 5814 5814 5814 5814 5813 5814 5814 5813 5813 5814 5815 5816 5817 5819 5820 5822 5824
5787 5788 5788 5789 5791 5792 5793 5794 5796 5797 5799 5800 5802 5803 5804 5804 5805 5806 5806 5806 5807 5807 5807 5807 5808 5808 5807 5807 5807 5807 5807 5807 5807 5807 5807 5807 5808 5809 5810 5812 5814 5816 5818
5784 5785 5786 5786 5787 5789 5790 5791 5792 5793 5794 5795 5796 5797 5798 5798 5799 5799 5800 5800 5800 5801 5801 5801 5801 5801 5801 5801 5801 5801 5801 5801 5801 5801 5800 5800 5801 5802 5803 5805 5807 5809 5811
5782 5783 5784 5785 5785 5786 5787 5788 5789 5790 5790 5790 5791 5791 5791 5792 5792 5793 5793 5794 5794 5794 5795 5795 5795 5795 5795 5795 5795 5795 5794 5794 5794 5794 5794 5794 5795 5795 5796 5798 5799 5801 5804
5780 5781 5782 5783 5783 5784 5784 5785 5785 5785 5785 5786 5786 5785 5785 5786 5786 5787 5787 5788 5788 5788 5788 5788 5789 5789 5789 5789 5789 5789 5789 5788 5788 5788 5788 5788 5788 5789 5789 5790 5792 5794 5796
5780 5780 5781 5781 5781 5781 5781 5781 5781 5781 5781 5781 5781 5781 5780 5781 5781 5781 5782 5782 5782 5782 5782 5783 5783 5783 5783 5783 5783 5783 5783 5783 5783 5783 5782 5782 5782 5782 5783 5784 5785 5787 5789
5780 5780 5779 5779 5778 5778 5778 5777 5777 5777 5777 5776 5776 5776 5776 5776 5776 5776 5776 5776 5776 5776 5776 5776 5777 5777 5777 5777 5778 5778 5777 5777 5777 5777 5777 5777 5777 5777 5777 5777 5778 5780 5781
5778 5778 5777 5776 5775 5774 5774 5773 5773 5772 5772 5771 5771 5771 5770 5770 5771 5771 5771 5770 5770 5770 5770 5771 5771 5771 5771 5772 5772 5772 5772 5772 5772 5772 5772 5771 5771 5771 5772 5772 5772 5773 5774
5777 5775 5774 5773 5772 5771 5770 5769 5768 5767 5766 5766 5766 5765 5765 5765 5765 5765 5765 5765 5765 5764 5765 5765 5765 5766 5766 5766 5766 5766 5766 5766 5766 5766 5766 5766 5766 5766 5766 5766 5766 5767 5767
5775 5773 5771 5770 5768 5767 5765 5764 5763 5762 5761 5760 5760 5759 5759 5759 5759 5759 5760 5759 5759 5759 5759 5760 5760 5760 5761 5761 5761 5761 5761 5761 5761 5761 5761 5761 5761 5761 5761 5761 5761 5761 5761
5773 5770 5768 5766 5764 5763 5761 5759 5758 5756 5755 5754 5754 5753 5753 5753 5753 5753 5754 5754 5754 5754 5754 5755 5755 5755 5755 5756 5756 5756 5756 5756 5756 5756 5756 5756 5756 5756 5756 5756 5756 5756 5756
5770 5767 5765 5762 5760 5758 5756 5754 5752 5751 5750 5749 5748 5748 5747 5747 5747 5747 5748 5748 5748 5749 5749 5749 5750 5750 5751 5751 5751 5751 5751 5751 5751 5751 5751 5751 5751 5751 5751 5751 5751 5751 5751
5768 5765 5762 5759 5756 5754 5752 5750 5748 5747 5745 5744 5743 5742 5742 5742 5742 5742 5742 5742 5743 5743 5744 5744 5745 5746 5746 5746 5746 5746 5747 5747 5747 5746 5746 5746 5746 5746 5746 5746 5746 5745 5745
5766 5763 5759 5756 5753 5751 5749 5747 5745 5743 5742 5740 5739 5738 5738 5737 5737 5737 5737 5737 5738 5738 5739 5739 5740 5741 5741 5742 5742 5742 5742 5742 5742 5742 5742 5742 5742 5741 5741 5741 5741 5740 5740
5765 5762 5758 5755 5752 5749 5747 5745 5743 5741 5739 5738 5737 5735 5735 5734 5733 5733 5733 5733 5733 5734 5734 5735 5736 5737 5737 5738 5738 5738 5738 5738 5738 5738 5738 5738 5737 5737 5737 5736 5735 5735 5734
5765 5762 5758 5755 5752 5750 5747 5745 5743 5741 5739 5737 5736 5734 5733 5732 5731 5730 5730 5730 5730 5731 5731 5732 5732 5733 5734 5734 5735 5735 5735 5735 5735 5734 5734 5734 5733 5733 5732 5732 5731 5729 5728
5766 5763 5760 5756 5754 5751 5749 5747 5744 5742 5740 5738 5736 5734 5733 5731 5731 5730 5729 5729 5729 5729 5730 5730 5731 5731 5732 5732 5733 5733 5733 5732 5732 5731 5731 5730 5730 5729 5728 5727 5726 5724 5722
5768 5765 5762 5759 5756 5754 5751 5749 5747 5744 5742 5740 5738 5736 5735 5733 5732 5731 5731 5730 5730 5730 5730 5730 5730 5731 5731 5731 5732 5732 5731 5731 5730 5730 5729 5728 5727 5726 5725 5723 5722 5720 5717
5771 5768 5765 5762 5759 5757 5755 5752 5750 5748 5746 5744 5741 5739 5738 5736 5735 5734 5733 5733 5732 5732 5731 5731 5732 5732 5732 5732 5732 5731 5731 5731 5730 5729 5728 5727 5725 5724 5722 5720 5718 5716 5713
5775 5771 5769 5766 5763 5761 5758 5756 5754 5752 5750 5748 5745 5744 5742 5740 5739 5738 5737 5736 5735 5734 5734 5734 5734 5733 5733 5733 5733 5732 5731 5731 5730 5729 5727 5726 5724 5722 5720 5718 5715 5712 5709
5778 5775 5772 5770 5767 5765 5762 5760 5758 5756 5754 5752 5750 5748 5746 5745 5743 5742 5741 5740 5739 5738 5737 5736 5736 5736 5735 5735 5734 5733 5732 5731 5730 5729 5727 5725 5723 5721 5719 5716 5713 5710 5706
5781 5778 5776 5773 5771 5769 5766 5764 5762 5760 5758 5756 5754 5752 5751 5749 5748 5746 5745 5744 5743 5741 5740 5740 5739 5738 5737 5737 5736 5735 5734 5732 5731 5729 5728 5725 5723 5721 5718 5715 5711 5707 5703
5784 5782 5779 5777 5775 5772 5770 5768 5766 5764 5762 5760 5759 5757 5755 5754 5752 5751 5749 5748 5747 5745 5744 5743 5742 5741 5740 5739 5738 5736 5735 5734 5732 5730 5728 5726 5723 5720 5717 5714 5710 5706 5701
5787 5785 5783 5781 5778 5776 5774 5772 5770 5768 5766 5764 5762 5761 5759 5757 5756 5755 5753 5752 5751 5749 5748 5747 5745 5744 5743 5741 5740 5738 5736 5735 5733 5730 5728 5726 5723 5720 5716 5713 5709 5704 5699
5789 5787 5785 5784 5782 5779 5777 5775 5773 5771 5770 5768 5766 5764 5763 5761 5760 5758 5757 5755 5754 5753 5751 5750 5748 5747 5745 5744 5742 5740 5738 5736 5734 5731 5729 5726 5723 5720 5716 5712 5708 5704 5699
5791 5789 5788 5786 5784 5782 5780 5778 5776 5775 5773 5771 5769 5768 5766 5764 5763 5761 5760 5758 5757 5756 5754 5753 5751 5749 5748 5746 5744 5742 5740 5737 5735 5732 5729 5726 5723 5720 5716 5712 5708 5703 5698